Tracking 25693 objects as of 1-Jul-2022
HD Live streaming from Space Station
objects crossing your sky now

DELTA 1 DEB

Track DELTA 1 DEB now!
10-day predictions


NORAD ID: 13563
Int'l Code: 1978-026FA
Perigee: 799.0 km
Apogee: 863.7 km
Inclination: 98.9 °
Period: 101.4 minutes
Semi major axis: 7202 km
RCS: 0.058 m2 (small)
Launch date: March 5, 1978
Source: United States (US)
Launch site: AIR FORCE WESTERN TEST RANGE (AFWTR)

Note: This is SATELLITE DEBRIS
aabbcc
Your satellite tracking list
Your tracking list is empty




NASA's NSSDC Master Catalog

Two Line Element Set (TLE):
1 13563U 78026FA  22181.93016632  .00000115  00000-0  73904-4 0  9999
2 13563  98.8701 176.0777 0044949 149.4411 268.2621 14.20344515 77417
Source of the keplerian elements: AFSPC